Retour au catalogue

STARLINK-4126

ActifCommunicationsVLEO
NORAD 52867·PAYLOAD·🇺🇸 United States

Lancé Jun 17, 2022 depuis Cape Canaveral Space Force Station

Loading…

Prochains Passages (prochaines 24 heures)

TLE

FraisSource: CelesTrak SupGP

Époque: Sep 15, 2026, 01:30 UTC

1 52867C 22062AP  26258.06298611 -.00026574  00000+0 -78510-3 0  2583
2 52867  53.1572 239.0040 0001429  86.9589 269.7779 15.34405590    16

Suivez STARLINK-4126 en temps réel avec AllMySat

Download on the App Store